This demonstration page uses our WeatherBlox Daily Observations layout. Learn more.

Left ArrowRight Arrow

36.17497, -115.13722

Hourly Observations for January 10, 2019

Temp ( °F °C ) Dew Point ( °F °C ) Humidity (%) Winds ( mph kmh ) Pressure ( in mb ) Visibility ( mi km ) Precip ( " mm )
12:53 am 00:53 Clear 43 6.1 35 1.7 74 74 Calm 30.14 1021 10 16.0934 0 0
1:53 am 01:53 Clear 42 5.6 35 1.7 76 76 WNW 5 7 30.16 1021 10 16.0934 0 0
2:53 am 02:53 Clear 42 5.6 34 1.1 73 73 NW 6 9 30.15 1021 10 16.0934 0 0
3:53 am 03:53 Clear 42 5.6 34 1.1 73 73 NNW 3 6 30.14 1021 10 16.0934 0 0
4:53 am 04:53 Clear 43 6.1 35 1.7 74 74 Calm 30.14 1021 10 16.0934 0 0
5:53 am 05:53 Clear 41 5 34 1.1 76 76 NW 6 9 30.16 1021 10 16.0934 0 0
6:53 am 06:53 Sunny 39 3.9 33 0.6 79 79 NNW 3 6 30.18 1022 10 16.0934 0 0
7:53 am 07:53 Sunny 43 6.1 35 1.7 74 74 WNW 6 9 30.2 1023 10 16.0934 0 0
8:53 am 08:53 Sunny 50 10 36 2.2 59 59 W 5 7 30.21 1023 10 16.0934 0 0
9:53 am 09:53 Sunny 53 11.7 37 2.8 55 55 SW 3 6 30.21 1023 10 16.0934 0 0
10:53 am 10:53 Sunny 57 13.9 37 2.8 47 47 Calm 30.18 1022 10 16.0934 0 0
11:53 am 11:53 Sunny 58 14.4 36 2.2 44 44 Calm 30.14 1021 10 16.0934 0 0
12:53 pm 12:53 Sunny 60 15.6 36 2.2 41 41 SSE 5 7 30.11 1020 10 16.0934 0 0
1:53 pm 13:53 Sunny 62 16.7 36 2.2 38 38 SSE 7 11 30.11 1020 10 16.0934 0 0
2:53 pm 14:53 Sunny 61 16.1 36 2.2 39 39 SE 5 7 30.11 1020 10 16.0934 0 0
3:53 pm 15:53 Sunny 61 16.1 36 2.2 39 39 SE 6 9 30.11 1020 10 16.0934 0 0
4:53 pm 16:53 Clear 58 14.4 36 2.2 44 44 SE 6 9 30.12 1020 10 16.0934 0 0
5:53 pm 17:53 Clear 57 13.9 36 2.2 45 45 SSW 5 7 30.14 1021 10 16.0934 0 0
6:53 pm 18:53 Clear 54 12.2 37 2.8 53 53 WNW 8 13 30.15 1021 10 16.0934 0 0
7:53 pm 19:53 Clear 51 10.6 37 2.8 59 59 NW 7 11 30.16 1021 10 16.0934 0 0
8:53 pm 20:53 Clear 48 8.9 36 2.2 63 63 NNW 5 7 30.17 1022 10 16.0934 0 0
9:53 pm 21:53 Clear 49 9.4 35 1.7 59 59 NNW 8 13 30.16 1021 10 16.0934 0 0
10:53 pm 22:53 Clear 48 8.9 35 1.7 61 61 Calm 30.15 1021 10 16.0934 0 0
11:53 pm 23:53 Clear 48 8.9 34 1.1 58 58 Calm 30.15 1021 10 16.0934 0 0

Powered by AerisWeather